GFSWCAN_500_rhum_129.txt.gz
RH
98 100 100 100 100 100 100 100 98 99 100 100 56 64 81 12 17 9 10 9 7 7 9 10 12 11 10 9 9 13 16 17 13 20 43 48 56 80 84 76 88 83 85 93 94 75 81 91 89 83 99 100 80 96
88 100 100 100 100 100 100 100 100 100 100 88 84 87 29 27 9 11 11 9 8 8 10 12 14 13 11 13 10 14 18 20 12 22 31 31 55 76 88 91 82 98 90 82 89 81 81 95 100 96 100 100 100 100
93 98 100 100 100 100 100 100 100 100 99 91 99 62 53 12 11 24 13 10 8 9 12 13 16 15 14 14 12 14 19 20 15 16 18 22 42 64 83 94 96 93 92 98 100 95 100 100 97 100 100 100 100 100
100 95 97 100 100 100 100 100 100 100 96 100 80 88 20 14 15 27 16 15 9 10 12 15 18 19 16 14 13 16 24 16 30 15 16 13 24 48 64 90 89 90 100 100 100 100 96 100 100 100 100 100 100 92
100 100 100 100 100 100 100 100 100 100 100 92 94 67 29 16 28 22 22 20 11 11 13 16 18 20 17 16 13 15 28 21 30 32 15 14 16 39 55 86 97 99 100 100 100 100 100 100 100 100 100 96 90 89
100 100 100 100 100 100 100 100 100 100 100 94 100 74 40 18 28 22 34 55 13 12 13 17 21 23 19 17 14 15 26 33 39 43 25 15 14 30 45 79 80 84 98 100 100 100 100 100 100 100 100 94 86 70
100 100 100 100 100 100 100 100 100 100 100 100 98 72 39 20 46 21 50 41 17 12 15 18 25 26 21 19 15 19 34 45 40 45 35 16 13 26 36 63 53 57 94 98 99 100 99 100 100 90 64 58 56 57
95 100 100 100 100 100 100 100 100 100 97 100 99 84 63 25 34 22 76 46 16 14 16 22 28 28 25 22 18 25 54 38 52 46 27 17 22 28 34 42 41 38 79 94 90 85 79 70 65 65 64 62 61 60
80 100 100 100 100 100 100 100 100 100 100 99 94 92 66 50 37 28 75 38 18 16 18 27 32 31 29 29 23 26 48 35 48 50 37 45 52 46 31 28 28 35 69 80 86 84 80 77 75 69 65 66 68 68
97 94 100 100 100 100 100 100 100 100 99 100 100 100 87 90 50 36 73 32 20 17 23 35 37 34 32 36 30 38 44 54 65 70 69 60 62 52 41 34 38 49 70 74 75 79 77 79 79 84 84 65 31 20
100 95 100 100 100 100 100 100 95 89 84 90 100 98 85 92 60 76 79 31 21 19 28 40 43 39 42 48 42 35 48 46 50 91 96 100 94 82 66 59 70 64 66 79 89 88 91 82 62 50 34 20 17 15
100 100 100 100 100 99 100 98 100 100 94 71 53 68 94 78 77 85 64 29 21 20 39 52 52 51 47 58 55 38 40 47 60 86 97 100 100 99 91 94 82 74 78 92 90 84 76 64 55 37 24 19 20 22
61 100 100 100 100 96 100 100 100 100 100 98 95 90 82 92 90 75 47 25 23 42 65 69 62 64 73 70 62 49 42 41 52 94 100 100 100 92 89 92 77 72 85 97 95 96 96 63 41 30 26 25 27 28
36 58 100 100 100 100 98 100 100 100 97 94 93 92 94 82 71 45 28 26 50 80 84 81 70 70 76 73 59 48 52 45 49 65 93 100 100 97 87 74 75 72 91 95 91 72 56 52 47 42 37 32 24 17
53 34 42 100 100 100 100 100 100 99 98 96 92 83 79 61 41 31 42 78 95 90 72 78 87 89 84 63 50 54 57 50 59 71 94 100 100 98 86 81 80 86 96 91 74 65 59 51 38 22 18 18 21 26
47 50 38 35 62 100 100 100 100 100 99 94 82 69 57 57 75 90 92 88 83 90 94 93 92 93 85 69 69 96 93 89 100 100 100 100 100 100 100 100 100 96 93 78 68 60 51 33 20 24 24 23 21 23
32 40 40 70 100 100 100 100 100 100 99 89 83 86 88 88 85 88 88 95 94 89 100 100 100 83 72 79 98 100 100 100 100 100 100 100 100 100 100 100 96 86 78 66 56 52 48 33 27 27 23 22 27 23
36 39 86 100 100 100 100 99 93 92 75 70 70 71 80 86 100 100 86 83 94 99 100 100 85 73 85 84 84 100 100 100 100 100 100 100 100 100 100 94 84 76 67 63 61 57 48 38 32 24 37 57 55 48
48 68 100 100 100 100 66 53 51 50 28 38 61 73 60 58 56 57 65 70 92 100 100 94 86 63 86 100 100 94 99 100 100 100 100 100 100 98 91 82 75 77 74 68 62 51 40 27 28 55 71 80 81 88
98 98 96 100 100 99 85 60 42 33 27 32 51 69 100 93 95 89 75 81 100 98 80 75 86 100 100 94 91 87 90 99 100 99 100 100 95 90 86 80 77 69 62 58 51 35 28 40 67 78 84 87 91 93
100 100 100 100 100 99 72 46 41 25 27 34 83 89 66 79 100 100 97 87 86 72 84 100 100 100 100 100 93 98 92 91 91 90 95 92 88 93 90 82 75 65 56 44 32 37 65 78 85 88 89 89 90 91
94 94 98 96 97 80 56 46 43 33 31 56 64 85 99 100 100 100 95 81 92 100 100 100 99 92 96 99 100 98 90 92 93 86 80 79 78 81 72 60 51 46 41 47 73 90 91 91 89 83 76 69 62 50
90 85 92 82 62 49 50 37 43 60 83 97 100 100 100 98 88 81 78 97 99 92 100 100 100 100 100 99 100 100 98 94 91 86 82 78 69 58 51 49 58 78 93 97 93 86 73 59 46 38 32 27 23 22
73 68 61 58 53 66 76 91 99 100 100 100 100 99 94 93 93 98 96 100 93 94 99 98 98 100 100 100 100 97 94 88 79 68 60 60 68 79 92 94 83 70 54 36 29 24 20 18 16 16 15 15 15 14
90 95 87 87 88 95 100 100 100 100 100 100 100 100 100 85 77 73 83 100 99 100 95 87 85 84 91 93 79 74 70 73 85 87 97 95 83 60 45 31 22 16 16 17 18 18 19 18 18 18 17 17 16 16
97 88 88 89 98 100 100 100 100 100 100 100 98 100 91 76 72 74 97 100 92 88 86 87 85 82 87 94 99 100 98 87 71 54 43 32 21 16 15 16 18 18 17 16 16 16 16 17 18 19 20 19 19 19
98 99 100 100 100 100 100 100 100 100 98 94 96 90 82 76 76 94 99 99 94 87 84 92 100 100 100 89 66 52 45 35 23 18 17 18 18 18 17 16 15 15 14 14 15 15 16 16 18 18 18 18 18 17
97 100 100 100 100 100 100 100 100 98 94 95 93 85 78 88 100 98 91 94 94 100 100 100 92 68 54 44 36 26 18 17 18 19 20 19 17 15 14 13 12 13 14 15 15 14 14 14 16 19 21 22 22 22
99 100 100 100 99 98 99 99 100 100 100 100 100 100 92 97 100 100 100 100 100 100 94 67 55 44 37 31 22 18 19 21 22 22 20 18 16 14 12 12 12 13 13 14 15 16 17 23 33 33 31 27 23 20
88 74 67 65 70 75 83 82 96 97 100 99 98 99 99 100 99 99 100 100 96 73 62 53 44 38 35 29 23 22 23 25 24 23 20 20 17 16 14 13 13 12 14 17 19 20 24 37 41 38 32 26 23 22
99 98 75 64 67 79 76 76 84 92 100 100 100 100 100 100 100 100 98 80 68 62 57 51 43 39 37 33 29 28 29 29 28 27 25 26 22 18 15 13 12 15 20 23 22 22 26 36 43 44 42 42 42 44
100 100 100 95 97 95 95 93 92 95 98 100 100 100 100 100 100 84 73 66 63 61 58 53 47 41 39 37 35 33 34 36 36 37 38 36 26 18 14 13 16 21 25 29 31 31 31 35 39 43 45 46 47 48
97 98 99 95 93 96 100 100 100 100 98 100 100 100 96 88 83 76 73 68 62 63 63 58 56 51 47 42 37 35 37 41 44 47 46 36 25 18 14 15 20 23 26 28 30 33 36 38 40 41 42 41 40 40

GFSWCAN_500_rhum_132.txt.gz
RH
100 100 100 100 100 100 100 100 99 97 95 99 100 100 100 83 98 54 9 7 7 7 7 7 10 9 9 7 7 8 8 13 15 10 26 43 36 55 62 61 66 74 90 82 88 76 76 100 96 100 100 100 100 100
100 100 100 100 100 100 100 100 92 100 100 100 100 100 62 94 27 10 9 8 9 6 8 9 11 11 10 9 8 9 9 16 19 11 22 34 39 63 70 56 62 72 79 67 66 60 67 96 98 100 100 100 100 100
100 100 100 99 100 100 100 100 100 100 100 100 100 75 85 82 15 23 9 10 8 7 8 9 11 13 12 11 10 10 11 20 20 15 18 21 36 55 63 73 72 89 92 90 80 78 85 95 97 100 100 100 100 100
80 100 100 100 100 100 100 100 100 100 100 100 88 73 100 33 14 10 12 11 10 9 10 11 12 13 15 13 12 11 10 18 22 26 16 15 23 38 49 58 78 82 91 96 100 98 91 90 95 100 100 100 100 100
71 88 100 100 100 100 100 100 100 100 100 100 70 99 76 21 28 12 17 12 12 9 9 12 13 14 15 15 14 11 10 16 26 26 31 22 16 20 35 51 74 72 85 96 100 100 100 100 98 100 100 100 92 81
85 95 97 99 100 100 100 100 100 100 100 99 93 100 53 63 16 16 21 18 16 10 10 12 15 16 18 17 14 12 10 12 24 31 37 40 17 18 29 42 71 60 57 90 100 100 100 100 100 100 100 76 66 68
88 90 96 100 100 100 100 100 100 100 100 99 100 90 75 30 16 27 23 26 44 14 11 12 16 19 21 20 16 14 13 16 18 25 36 44 21 16 26 39 57 65 40 82 100 98 100 100 100 99 78 61 57 58
84 90 100 97 100 97 100 98 100 100 100 98 100 96 87 27 20 26 37 31 56 20 13 13 16 19 25 22 19 16 17 20 23 37 43 34 19 17 25 33 36 54 39 58 97 98 88 80 70 65 57 59 62 68
98 98 100 99 99 100 100 100 100 100 96 100 100 100 87 50 22 31 66 40 86 24 15 14 17 23 27 26 22 22 22 26 24 25 24 22 23 29 36 39 30 30 33 44 71 83 80 77 77 73 76 83 79 56
100 100 100 100 100 100 100 98 97 100 100 100 100 100 99 78 36 38 60 35 89 30 18 15 16 28 33 30 28 32 28 34 43 60 60 60 60 55 56 49 38 33 30 37 51 69 75 79 85 80 65 49 31 22
80 100 100 100 100 100 100 99 100 100 100 100 100 100 99 91 69 50 61 34 71 42 20 17 20 31 40 41 39 43 40 34 41 52 78 91 94 86 87 77 75 64 55 57 59 73 81 83 79 75 70 46 30 24
87 100 100 100 100 99 100 100 100 100 100 100 100 100 97 97 88 78 83 41 70 45 21 20 25 40 46 46 46 54 56 42 38 46 71 100 100 100 100 98 99 99 82 68 62 77 96 100 94 64 49 41 39 38
100 100 100 100 100 100 100 100 96 97 100 100 96 100 100 98 97 97 84 69 90 39 22 21 30 46 51 52 48 56 59 50 46 38 44 99 100 100 100 90 92 95 80 62 62 81 98 84 64 58 55 49 42 31
100 100 100 100 100 100 100 100 99 100 100 100 100 98 99 97 89 92 85 90 81 36 23 24 41 56 59 55 60 65 55 51 43 42 45 67 86 90 93 91 89 85 78 70 69 89 92 78 66 60 50 41 27 17
100 100 100 100 100 100 100 100 100 100 100 100 100 99 90 82 81 79 86 87 52 26 26 42 58 60 60 62 64 60 57 52 56 64 60 60 66 77 87 97 100 100 97 81 88 92 88 69 60 53 46 39 26 25
100 100 100 100 95 100 100 98 100 100 100 100 98 99 98 94 89 88 85 60 34 30 54 68 64 57 70 71 64 72 70 95 98 99 100 100 100 100 100 100 100 100 100 100 100 98 75 64 54 44 42 40 35 26
98 100 100 99 100 100 99 100 100 100 94 93 94 94 99 95 89 78 60 44 44 62 70 72 73 79 76 66 68 83 97 100 100 100 100 100 100 100 98 98 100 100 100 100 85 73 67 55 48 46 45 33 22 39
61 64 100 100 100 100 100 99 94 83 74 76 80 82 80 75 69 63 61 69 73 79 88 90 94 92 62 59 78 86 97 99 100 100 97 98 99 97 97 100 100 100 97 84 77 70 62 54 46 44 30 23 37 58
73 61 55 91 100 100 100 92 82 72 67 72 71 71 72 73 74 70 66 66 66 63 71 98 90 74 65 88 91 93 88 90 88 99 96 100 94 93 98 99 100 97 88 82 76 66 56 49 46 35 29 38 62 71
51 64 57 51 74 99 96 66 51 57 66 78 82 76 72 68 64 58 44 33 27 58 71 74 86 72 78 87 82 90 91 85 77 75 87 93 90 89 94 97 92 85 80 74 69 58 51 44 39 44 62 73 77 78
66 100 100 100 100 100 66 47 34 32 41 53 47 38 40 34 37 52 51 40 50 74 77 85 95 99 93 92 92 92 91 89 86 89 82 77 78 85 94 91 88 85 81 72 59 50 52 65 76 90 91 88 84 78
100 100 100 100 99 65 74 68 81 75 49 40 36 24 23 45 88 97 86 68 69 75 88 100 88 83 87 100 100 96 96 94 95 95 88 85 87 91 93 93 90 76 66 74 86 95 93 82 68 53 43 36 29 24
99 100 100 96 94 80 76 68 59 46 30 24 24 24 53 82 93 89 73 67 73 77 77 74 75 93 100 98 92 94 97 100 100 100 97 94 89 84 76 75 81 92 97 80 59 36 23 17 16 16 16 17 17 17
83 84 84 100 100 84 53 51 43 38 28 28 43 75 99 94 73 64 73 80 83 79 85 91 96 100 100 100 100 92 96 100 99 92 88 84 85 98 94 89 71 38 20 17 16 16 16 16 16 16 16 16 16 17
100 100 100 82 55 57 58 43 36 51 100 100 92 94 99 75 64 66 80 93 85 85 84 87 99 98 99 99 95 100 100 98 96 100 100 95 75 42 26 19 17 17 17 16 14 13 12 12 13 14 14 15 16 16
65 54 55 50 55 58 70 98 100 100 100 100 100 100 90 76 75 85 100 98 86 79 82 87 88 94 96 93 96 100 100 92 70 49 38 27 19 17 19 19 17 15 14 13 12 11 11 12 13 14 15 15 16 16
62 63 73 88 98 100 100 100 100 100 100 100 100 100 89 82 86 90 96 90 78 74 76 88 95 100 100 100 91 66 49 39 26 19 18 19 20 20 20 18 17 17 16 14 12 11 11 12 14 15 16 17 20 22
84 96 100 100 100 100 100 100 100 100 99 93 93 91 84 87 96 97 86 86 90 97 99 100 100 100 89 57 42 35 26 21 20 20 21 23 23 23 22 22 23 22 19 15 11 11 12 16 18 19 22 29 37 36
97 100 99 100 100 100 100 100 100 100 100 100 100 98 98 100 99 98 96 97 100 100 100 100 96 67 48 39 35 31 28 26 25 25 25 25 26 27 28 29 31 28 19 12 12 15 19 22 22 22 28 42 44 40
100 100 100 100 100 100 100 100 100 100 94 97 100 100 100 100 100 100 100 100 100 100 100 89 62 52 43 37 35 33 32 29 28 28 28 30 32 35 37 40 35 24 15 12 15 19 22 26 28 27 31 38 44 47
100 100 100 100 100 100 100 100 100 100 100 100 100 100 100 99 100 100 100 100 100 100 83 64 58 53 47 42 42 40 38 35 32 31 31 34 39 44 46 40 28 19 13 14 18 22 24 27 30 34 37 40 41 43
100 100 100 100 100 100 95 80 83 83 86 91 100 100 100 99 96 96 100 100 96 79 67 64 62 60 56 53 54 55 52 48 43 40 36 36 42 46 43 33 23 16 13 15 19 22 25 27 29 30 31 33 34 36
96 100 100 100 99 96 96 86 79 76 83 88 92 91 92 91 93 100 96 90 79 75 70 69 68 68 64 62 64 66 65 63 59 50 42 37 40 43 40 30 21 15 14 19 22 24 27 29 31 33 36 38 40 42

GFSWCAN_500_rhum_135.txt.gz
RH
100 100 100 100 100 100 98 97 100 99 98 100 100 100 100 100 100 100 100 91 52 49 48 22 9 9 8 8 7 6 6 6 7 10 11 14 41 39 48 51 56 60 65 72 63 68 74 75 97 99 99 100 100 100
100 100 100 100 100 100 100 100 100 95 86 95 100 100 100 100 99 99 96 89 70 20 11 9 9 10 10 9 8 6 7 7 9 12 12 13 35 35 49 48 59 74 71 74 73 67 81 89 100 100 100 99 100 100
100 100 100 100 100 100 98 100 100 93 97 100 100 100 100 98 100 98 86 34 9 8 9 9 11 12 11 10 9 8 8 8 9 14 17 14 30 35 58 60 61 69 66 70 75 91 89 90 90 92 93 93 100 100
100 100 100 100 100 100 100 100 100 100 100 100 100 100 100 98 100 70 18 8 9 9 10 11 11 11 11 11 11 9 9 9 8 13 21 19 18 25 45 51 54 66 71 88 92 98 100 100 84 91 87 93 100 94
100 100 100 100 100 100 99 98 100 100 98 100 100 100 96 99 67 15 12 9 10 9 9 11 11 12 12 12 12 11 11 10 9 12 22 25 23 17 29 41 44 68 56 72 100 98 98 96 92 81 96 100 81 61
100 100 100 100 100 100 100 98 100 100 100 100 100 88 76 95 17 16 15 11 11 11 10 10 11 12 13 13 14 14 12 11 10 11 16 23 30 28 19 28 39 65 60 46 86 97 99 100 97 100 100 97 79 61
85 100 100 100 100 100 100 100 100 100 100 100 99 79 98 86 16 19 12 16 12 13 10 10 11 12 13 16 17 16 14 11 10 12 12 18 30 40 20 24 33 44 68 55 40 98 95 96 98 98 98 78 67 60
59 75 94 97 98 100 100 100 100 100 100 100 99 89 100 75 17 18 15 19 19 27 16 11 11 13 15 18 20 18 15 14 12 14 15 23 35 37 19 20 33 39 50 43 36 78 95 96 88 77 66 60 59 62
59 74 85 92 100 100 100 95 100 100 100 100 100 98 100 49 38 23 18 28 36 83 47 16 12 13 16 20 23 22 21 20 18 19 16 17 19 18 16 20 34 37 41 35 30 40 77 81 79 74 72 73 63 51
69 85 95 99 97 99 98 98 100 100 100 100 100 100 99 74 65 22 22 57 49 90 73 25 16 14 16 21 25 26 29 31 26 26 37 49 36 44 50 46 55 58 53 43 34 30 46 63 72 78 77 74 69 58
75 94 99 94 93 91 99 100 100 100 100 100 100 100 100 91 45 38 25 81 76 87 87 41 20 14 16 21 26 32 32 32 36 29 34 67 86 70 69 84 98 85 80 74 58 45 52 68 83 85 80 61 51 49
79 94 96 89 93 97 100 100 100 100 100 100 100 100 100 100 67 53 33 66 90 74 89 73 33 18 16 19 28 36 35 32 40 39 32 44 82 100 99 91 87 95 98 95 87 63 47 49 59 81 68 61 58 53
86 100 100 91 97 100 99 98 97 100 100 100 100 100 100 98 97 92 44 57 88 78 82 82 50 25 19 20 30 39 38 37 39 44 39 36 57 85 96 97 100 97 92 88 84 66 56 46 59 73 80 68 61 52
93 100 100 99 100 100 92 100 100 98 98 100 100 100 100 100 97 93 85 80 92 81 80 83 59 27 21 22 36 46 44 43 45 47 41 41 52 55 81 91 93 83 79 82 86 84 70 59 60 70 83 66 51 43
96 100 100 100 100 100 100 93 100 100 100 99 99 100 100 98 99 99 100 99 98 89 89 82 54 31 23 30 48 48 52 52 51 46 50 62 68 81 82 73 79 98 95 91 88 80 71 72 86 90 75 54 48 41
100 100 100 100 100 100 100 100 99 100 100 100 100 100 100 100 100 100 100 99 96 95 92 81 46 30 29 44 53 49 57 64 63 83 95 100 100 100 100 100 100 100 100 100 99 96 93 95 93 80 66 54 47 37
100 100 100 100 100 100 100 100 100 100 99 100 100 100 100 100 100 100 100 99 97 94 90 66 39 35 47 50 57 63 73 72 85 92 96 98 98 100 100 100 100 100 100 100 100 98 98 93 85 73 61 50 43 39
100 100 100 100 93 100 100 100 98 96 98 100 100 100 100 100 100 98 98 98 94 87 70 50 49 50 54 53 54 64 72 78 96 100 89 95 100 100 99 99 98 96 100 100 99 99 100 92 77 68 57 48 42 37
100 100 100 95 96 99 95 92 93 100 100 99 100 100 100 100 100 100 95 90 81 64 56 56 54 56 52 50 57 60 58 68 80 90 100 97 75 68 72 77 84 91 97 98 99 97 94 86 76 61 51 44 41 40
100 100 100 94 98 97 88 80 86 93 96 88 84 87 94 96 90 82 70 60 53 50 51 55 49 40 38 48 52 59 67 69 78 89 89 82 83 86 78 69 65 69 77 85 89 89 88 77 64 57 60 67 72 74
100 100 100 100 100 100 80 77 69 68 70 75 73 70 68 64 60 56 52 48 45 42 31 21 36 29 51 57 60 71 72 85 97 100 97 96 99 95 82 73 65 66 78 91 92 86 81 80 82 77 55 31 19 16
83 100 100 100 100 100 96 73 65 64 55 57 60 60 59 56 53 49 40 31 24 19 16 20 38 57 51 60 69 65 82 98 100 100 100 100 100 100 98 95 93 98 97 93 90 86 58 27 17 16 16 16 15 15
83 77 74 74 80 90 93 82 78 55 52 48 40 35 32 30 26 26 23 28 37 35 45 60 68 71 72 66 71 87 99 100 100 100 100 100 100 100 98 96 96 95 78 41 21 18 17 16 14 13 12 12 11 10
98 83 91 77 56 52 58 68 69 69 44 38 30 23 21 22 23 25 40 78 71 64 63 70 72 66 70 81 89 100 100 100 100 97 100 100 100 100 92 69 39 23 19 18 18 17 16 17 17 16 13 10 9 10
100 100 100 94 63 60 68 76 59 51 46 34 25 21 22 32 43 54 78 80 71 72 70 62 62 70 84 99 100 100 100 100 99 100 100 90 57 38 26 18 17 18 19 20 20 22 25 24 21 14 10 10 11 12
98 91 85 73 68 58 60 57 52 40 36 34 36 44 68 61 65 72 93 98 67 63 68 73 74 78 91 98 99 99 99 99 89 60 44 28 20 18 19 20 22 23 24 26 27 31 29 24 14 11 12 14 16 18
72 61 52 63 57 56 60 58 51 73 95 99 94 81 66 60 75 100 100 89 83 74 74 68 68 79 94 100 100 98 71 47 37 27 22 21 22 23 25 26 27 28 31 33 36 34 25 14 12 14 17 19 20 22
57 70 78 67 64 63 80 99 100 100 100 100 96 87 76 82 100 100 88 86 87 82 73 72 84 96 100 100 90 51 38 33 29 27 26 27 26 26 26 26 27 31 36 39 36 24 14 12 15 19 22 24 26 28
63 60 78 93 100 100 100 100 100 100 100 94 88 89 98 100 100 97 89 88 88 85 85 92 100 100 100 83 48 39 34 32 31 31 31 32 32 29 27 26 29 32 36 35 26 17 12 15 17 20 23 26 29 32
98 100 100 100 100 100 100 100 100 100 100 100 99 100 100 100 99 94 92 91 88 90 99 100 100 100 92 57 46 41 39 40 40 42 42 42 42 40 36 30 27 32 35 30 22 14 14 18 20 22 24 26 28 30
90 87 90 91 97 100 100 100 100 100 99 98 99 97 98 93 91 90 88 88 90 100 100 100 100 97 73 58 54 51 50 51 51 50 47 47 47 49 49 39 31 32 34 28 20 14 15 18 21 24 26 29 31 34
100 100 100 100 100 100 100 100 97 93 97 96 97 98 99 94 89 93 98 94 100 100 100 100 98 82 69 65 62 60 59 58 56 55 54 51 53 56 58 49 36 33 34 29 20 14 16 20 24 27 29 31 34 37
100 100 100 100 100 100 100 100 94 90 90 88 94 95 93 88 89 94 100 95 100 100 100 98 87 77 75 75 73 72 70 69 67 68 68 63 62 63 63 54 40 35 35 30 21 16 18 22 26 29 32 35 36 40

GFSWCAN_500_rhum_141.txt.gz
RH
100 100 100 94 56 100 88 45 93 100 61 32 51 88 100 100 100 79 79 97 100 100 100 100 100 100 98 90 80 72 57 12 6 5 5 5 4 4 6 9 11 19 29 41 46 55 63 62 53 68 86 100 100 100
100 100 100 100 100 53 26 26 48 87 94 100 100 100 100 100 100 99 100 100 100 100 100 96 91 94 94 77 54 23 9 7 6 5 5 5 5 5 8 10 14 20 31 43 55 72 83 78 71 92 99 100 100 100
100 100 100 100 100 67 71 66 85 92 98 99 100 100 100 100 100 100 100 100 100 100 99 96 96 91 61 35 23 9 8 6 6 5 5 5 5 5 8 11 14 20 39 56 68 73 95 93 100 100 100 100 100 100
100 100 100 100 100 100 100 100 100 100 100 100 100 100 100 100 100 100 98 100 100 100 93 97 69 51 71 20 10 9 8 7 6 6 6 6 5 5 7 13 17 19 49 60 67 61 97 99 98 100 98 92 96 100
100 100 100 100 100 100 100 100 100 100 100 100 100 100 100 100 100 100 100 100 98 100 94 74 83 34 14 12 11 8 8 8 8 8 7 6 6 5 6 11 20 22 42 53 62 61 67 100 100 100 100 99 97 97
100 100 100 100 100 100 100 100 100 100 100 100 100 100 100 100 100 100 97 98 98 78 97 52 22 15 13 11 10 8 9 10 9 8 8 8 7 5 6 7 12 22 25 44 50 70 65 76 100 100 100 100 99 100
100 100 100 100 100 100 100 100 100 100 100 100 100 100 100 100 100 100 90 81 86 60 23 17 14 13 12 11 10 9 10 11 10 10 10 9 8 7 6 7 9 23 22 29 39 49 72 61 87 100 100 99 94 84
100 100 100 100 100 100 100 100 100 100 100 98 99 100 100 100 100 95 97 97 61 23 15 13 12 13 12 12 11 11 12 12 13 13 13 12 10 8 9 10 22 31 26 23 27 41 50 55 49 65 88 91 88 82
100 100 100 100 100 100 100 100 100 100 98 97 96 100 100 100 96 94 79 52 23 18 14 12 11 12 14 12 12 13 15 14 16 17 16 16 14 11 14 18 17 27 25 21 21 34 45 49 52 54 71 82 85 85
100 100 100 100 100 100 100 100 100 100 100 100 97 100 100 100 99 72 37 22 16 14 14 13 12 12 16 18 19 19 18 17 18 19 21 22 19 15 23 34 17 17 18 21 26 44 62 75 73 71 73 76 71 76
100 100 100 100 100 100 100 100 100 100 100 100 100 100 100 100 88 55 30 21 18 14 14 16 28 39 46 38 32 28 22 19 19 23 25 26 24 19 20 39 55 49 61 66 70 82 90 93 95 91 81 63 53 37
100 100 100 100 100 100 100 100 100 100 100 100 100 100 100 99 70 39 27 35 37 20 19 38 62 80 72 54 44 33 28 26 22 26 27 29 27 19 22 38 56 62 83 89 99 100 99 89 78 72 69 66 60 45
100 100 100 100 100 100 100 100 100 99 100 100 98 91 92 96 84 57 36 36 48 30 27 52 69 88 84 71 60 55 48 38 33 28 29 34 29 22 26 37 44 43 58 92 100 100 93 77 75 71 63 56 51 48
85 78 85 96 100 100 100 100 100 99 94 94 100 92 85 91 94 82 55 38 42 37 38 54 72 85 86 83 76 68 59 51 38 32 36 38 29 30 32 36 48 58 81 100 100 100 97 93 91 88 81 72 66 56
67 68 88 93 100 100 100 100 100 100 100 95 97 99 88 91 96 96 90 65 74 50 37 53 72 80 79 78 77 70 65 55 46 42 44 34 37 41 57 92 88 99 100 100 100 100 100 94 87 92 97 99 98 89
56 82 97 100 100 100 100 100 100 100 100 100 99 90 85 100 100 100 98 95 96 72 48 52 51 60 69 84 81 81 72 56 48 48 42 30 53 55 71 97 100 97 96 95 95 95 92 88 89 94 99 97 97 97
54 83 97 100 100 100 99 97 98 99 100 97 97 93 95 100 100 100 100 100 100 89 82 73 70 72 84 83 85 78 67 56 52 48 28 37 62 64 71 84 88 89 81 74 72 70 69 67 65 67 80 80 75 79
67 91 100 100 98 100 100 99 99 99 100 100 100 100 100 100 99 100 100 100 100 98 99 100 98 92 87 91 82 72 66 57 50 24 24 43 56 58 62 73 81 82 84 83 78 71 67 60 54 53 57 65 77 79
82 100 96 97 98 99 100 100 100 100 100 100 100 100 100 98 97 99 97 98 96 93 92 92 91 90 93 81 72 68 59 47 22 18 31 49 54 61 73 83 82 82 81 79 78 79 75 73 77 82 83 73 51 29
100 100 100 100 96 92 100 100 97 100 100 100 100 99 98 100 100 100 98 96 93 91 94 96 96 89 80 75 70 56 43 21 15 31 43 49 68 79 88 90 91 91 92 92 93 98 100 88 63 36 21 18 19 20
100 100 100 95 99 96 90 97 98 99 100 100 100 99 97 96 95 96 95 96 100 100 100 94 87 78 69 60 50 36 18 16 33 41 54 76 84 82 82 84 89 96 97 97 82 46 22 18 18 20 21 21 24 26
100 100 91 73 76 93 97 98 100 96 92 98 98 98 96 96 98 98 98 100 100 97 91 82 73 62 52 44 25 14 16 34 50 64 77 78 78 79 82 94 95 80 44 25 20 20 21 21 20 19 18 19 23 25
100 100 97 89 80 91 99 98 96 90 86 89 87 90 88 84 83 83 88 90 87 79 70 63 54 44 32 15 12 23 40 58 73 79 76 75 80 86 93 78 45 25 20 21 22 22 21 20 19 18 18 21 23 20
100 100 100 100 100 100 90 87 79 80 80 79 75 69 71 71 70 66 64 61 57 52 47 42 33 19 14 20 34 49 65 78 85 81 80 83 88 85 52 30 22 23 23 23 23 23 23 23 21 19 20 22 20 12
100 100 100 82 70 69 84 88 84 78 70 58 50 45 44 46 50 50 46 44 43 36 27 19 17 21 33 43 53 63 75 85 83 84 88 90 65 38 26 25 25 25 25 24 25 25 26 26 25 22 22 23 16 12
100 99 92 75 60 46 43 44 43 44 48 46 43 41 34 27 24 20 21 18 16 14 16 20 36 49 48 52 66 76 78 80 86 89 87 50 33 28 27 28 28 27 27 30 31 32 33 31 28 23 24 22 15 13
99 84 72 61 50 41 42 45 49 57 62 60 62 41 29 24 22 21 19 18 18 18 29 54 60 59 64 68 69 68 77 89 92 86 46 34 30 30 33 32 29 33 38 44 45 45 42 38 31 26 25 23 16 14
100 94 78 71 60 55 62 77 83 82 73 61 43 37 30 28 28 30 33 34 45 66 80 80 71 70 69 70 71 85 92 94 90 50 36 35 37 39 37 35 36 43 52 58 59 57 51 44 36 29 27 25 18 15
92 99 91 86 86 84 80 74 68 61 55 52 45 36 32 40 42 64 89 87 83 82 79 74 74 74 78 82 89 96 96 100 63 42 40 46 48 49 45 48 55 63 61 58 58 60 56 48 41 32 30 28 21 16
66 75 76 73 68 60 56 60 64 61 55 47 39 42 59 79 83 86 80 75 75 76 77 78 78 85 93 97 98 99 100 100 62 48 49 55 60 58 60 67 68 58 53 54 59 61 60 55 46 37 33 32 25 19
60 58 57 61 64 66 64 58 47 40 38 45 69 84 92 86 78 86 92 88 90 93 93 92 98 100 100 100 100 100 100 100 74 63 66 71 75 78 81 73 61 60 60 60 62 63 65 62 53 43 37 35 28 22
42 44 45 45 49 52 46 43 47 64 85 85 86 84 88 90 95 96 100 100 100 100 99 100 100 100 100 100 100 100 100 100 88 82 86 92 97 94 82 73 72 72 68 65 67 67 70 69 59 50 42 39 32 25
59 67 72 70 76 81 88 84 82 80 84 85 91 92 90 91 95 100 100 100 100 88 79 86 99 100 100 100 100 100 100 100 97 97 99 100 100 97 89 85 82 78 73 71 73 72 76 76 67 56 48 44 37 28

GFSWCAN_500_rhum_144.txt.gz
RH
96 94 53 10 6 6 5 5 5 4 5 20 48 69 72 71 83 100 100 84 38 42 93 100 93 99 96 100 100 100 99 94 98 93 10 5 5 5 5 5 6 6 8 18 27 36 40 49 49 45 48 56 60 77
100 100 96 38 6 6 4 4 8 19 46 65 66 70 100 99 100 86 40 63 63 100 100 91 100 100 100 98 100 87 77 81 26 7 6 6 5 5 5 5 5 7 12 18 30 32 39 48 62 69 76 65 68 83
100 100 100 54 41 24 44 70 100 100 100 93 74 94 100 99 52 72 100 100 100 91 86 100 96 98 96 86 73 88 72 12 7 6 6 6 5 5 5 5 6 8 12 18 31 39 45 56 75 90 92 75 77 87
100 100 100 100 100 100 100 92 96 100 84 46 50 46 81 98 100 100 100 98 100 100 100 100 100 97 94 100 90 36 12 8 7 6 6 6 6 6 5 5 5 9 12 17 29 44 56 62 77 98 97 95 90 89
100 100 100 100 96 54 100 98 56 91 100 100 100 100 100 100 100 100 100 100 100 100 100 100 98 100 82 82 24 12 9 9 8 7 7 7 7 7 6 6 5 5 10 19 28 46 56 63 64 89 94 83 85 96
100 100 100 100 58 35 70 99 100 100 99 96 100 100 100 100 100 98 93 98 100 100 100 100 94 90 84 16 13 12 10 10 9 9 8 8 8 8 8 6 6 5 6 14 22 40 51 58 74 68 100 100 99 96
100 100 100 100 100 100 100 100 100 100 100 100 100 100 100 100 97 100 100 100 100 100 94 91 92 42 14 14 13 11 10 10 10 10 11 11 12 12 12 9 6 6 6 10 21 24 41 44 49 74 58 85 100 100
100 100 100 100 100 100 100 100 100 100 100 100 100 100 100 100 100 100 100 100 99 87 80 55 22 16 12 13 12 10 10 10 12 14 15 15 17 17 15 12 8 7 8 19 24 23 25 33 38 51 57 54 68 88
100 100 100 100 100 100 100 100 100 100 100 100 100 100 100 100 100 100 100 94 88 80 45 26 17 15 13 13 12 11 12 15 17 17 18 20 21 21 21 18 10 10 12 18 28 25 22 22 32 46 55 54 59 71
100 100 100 100 99 100 100 100 100 100 100 100 100 100 100 100 100 97 87 89 54 33 17 15 14 14 14 14 12 17 20 20 22 21 24 25 24 24 26 20 11 13 25 16 18 23 29 41 56 63 72 76 76 73
100 100 100 100 100 100 100 100 100 100 100 100 100 100 100 92 90 91 93 65 38 22 16 13 13 14 18 18 23 31 29 27 26 26 29 30 28 29 30 21 13 21 50 60 60 70 83 97 100 100 95 83 70 64
100 100 100 100 100 100 100 100 100 100 100 100 100 100 97 98 99 87 74 46 28 18 16 14 14 24 44 55 51 48 42 42 39 38 36 36 34 35 34 16 15 25 43 55 94 100 100 100 100 99 82 70 65 60
99 100 100 100 100 100 100 100 100 100 99 100 100 100 100 95 80 70 53 31 24 17 15 16 26 51 76 83 74 66 58 56 55 48 44 40 40 40 28 15 20 30 40 53 100 100 100 100 100 96 88 85 79 75
100 100 100 100 100 100 98 97 95 96 94 97 98 99 100 93 80 73 50 32 31 30 23 25 41 66 79 83 83 79 73 65 59 53 50 46 45 38 18 25 31 62 72 74 84 100 100 100 100 100 96 83 78 77
100 100 98 97 97 100 100 100 100 100 96 86 89 95 93 89 82 70 47 30 34 38 30 31 45 59 68 77 82 82 78 69 64 58 52 50 47 24 27 40 50 77 84 99 98 96 92 91 90 86 82 77 70 70
86 95 99 100 100 100 100 100 100 100 100 100 90 83 86 89 97 98 88 54 32 32 40 50 48 54 60 69 72 80 76 68 65 60 55 51 35 18 40 50 59 72 80 82 87 83 79 73 70 68 64 58 53 52
62 71 92 100 100 100 100 100 100 100 100 98 99 96 98 98 100 100 100 97 73 68 83 76 55 52 63 68 74 78 77 74 68 62 56 45 18 20 44 50 52 62 75 84 87 82 77 73 69 66 65 62 59 65
55 76 85 92 98 100 100 100 100 97 96 100 97 96 97 100 100 100 100 100 100 100 100 96 80 73 78 82 82 78 76 73 69 61 49 24 16 30 42 51 62 73 83 85 84 83 80 80 82 87 90 86 66 30
66 96 95 94 91 94 97 96 100 100 98 99 99 99 99 100 100 99 99 98 99 99 97 94 94 90 88 82 74 75 76 73 64 49 32 16 29 40 51 65 76 82 85 89 92 95 96 92 75 40 21 18 18 17
70 100 100 99 96 94 99 100 99 100 98 98 99 100 100 100 98 98 100 100 100 100 96 90 84 80 82 78 81 78 75 67 50 38 17 26 39 50 66 74 77 80 87 91 93 70 33 20 20 19 19 18 17 16
65 89 96 100 100 94 100 98 96 100 100 97 100 100 98 96 96 98 100 100 100 100 98 88 86 84 82 82 79 75 62 49 35 16 24 38 50 62 69 75 79 86 88 62 29 20 21 21 21 20 19 19 19 16
77 79 94 97 100 100 100 100 100 100 100 100 99 100 98 98 98 99 100 100 99 96 90 86 87 86 85 79 68 54 46 26 14 21 39 49 60 68 76 81 88 80 40 22 22 22 22 22 22 24 24 20 20 16
98 92 97 100 98 97 99 93 93 96 95 97 97 96 98 98 97 100 99 99 95 88 86 85 84 80 72 60 50 42 20 13 25 41 50 63 70 76 84 90 69 32 23 24 24 23 25 28 32 33 30 24 23 22
90 92 95 83 78 75 78 78 80 80 78 82 83 84 84 82 82 82 84 87 86 78 74 71 66 59 50 44 33 15 16 31 47 52 65 74 80 89 91 55 29 25 26 26 26 30 34 40 45 44 37 30 26 25
100 100 96 84 76 71 64 64 68 69 74 75 74 72 69 65 61 59 58 61 58 56 52 49 45 44 37 25 16 20 36 52 52 61 78 79 93 92 50 29 27 28 28 30 35 45 51 51 48 48 43 38 31 28
97 92 61 63 81 81 73 61 63 68 72 68 63 56 49 45 42 40 38 38 38 38 36 33 32 26 18 16 26 50 56 55 57 71 78 92 95 53 31 30 32 33 32 37 48 54 50 46 46 49 48 45 37 32
100 80 66 65 65 69 74 72 69 66 56 45 42 42 39 35 31 28 25 23 19 18 17 17 16 17 24 45 60 58 58 59 63 70 89 99 63 34 32 37 40 37 38 56 55 46 45 47 49 51 53 51 45 37
83 100 92 75 63 64 68 64 55 50 44 42 43 44 38 36 34 27 23 20 18 18 20 23 36 61 76 77 73 67 65 65 72 89 100 81 38 37 44 51 49 50 65 64 52 51 51 52 52 54 57 57 52 45
75 86 81 84 83 71 63 56 50 41 38 40 43 42 43 45 42 34 28 26 27 34 49 77 96 100 98 88 78 75 75 84 97 100 97 53 41 46 55 60 62 72 76 63 60 60 58 58 58 58 60 63 60 52
74 64 61 68 81 76 66 58 54 57 63 68 67 61 50 45 41 33 36 68 89 99 100 100 100 100 94 87 90 95 97 100 100 100 97 59 48 51 61 72 82 90 80 70 72 71 67 64 63 64 65 68 68 60
93 100 100 96 88 86 85 86 83 78 68 61 54 46 45 40 38 56 92 100 100 100 100 92 90 90 94 100 100 100 100 100 100 99 100 80 64 66 79 92 99 96 86 82 83 82 75 71 69 70 71 72 71 67
52 56 64 70 74 73 70 63 58 51 45 40 39 38 38 47 76 100 100 100 100 100 99 97 100 100 100 100 100 100 100 100 100 100 100 96 85 87 96 100 100 100 100 96 95 90 83 80 77 75 75 75 74 72
50 54 52 48 49 46 43 44 42 43 42 44 52 66 79 86 94 100 100 100 100 99 95 95 100 100 100 100 100 100 100 100 100 100 100 100 97 99 100 100 100 100 100 100 100 96 93 88 84 80 78 77 77 73

GFSWCAN_500_rhum_147.txt.gz
RH
100 11 11 15 24 25 21 15 13 11 12 11 10 8 7 7 8 34 76 60 59 66 87 100 100 69 44 75 74 83 93 64 72 100 100 100 97 34 8 5 5 5 5 6 8 58 29 19 36 44 56 51 46 50
97 34 8 9 11 16 16 13 11 10 10 10 8 7 7 6 27 85 80 100 100 100 100 92 47 32 46 100 100 94 93 93 100 98 99 78 12 6 6 5 5 5 6 20 23 59 52 37 39 36 44 57 62 56
100 100 18 8 9 10 10 9 8 8 8 8 7 6 7 42 80 79 100 100 100 100 99 79 43 93 93 94 80 77 94 92 96 82 22 8 6 6 5 5 6 5 6 6 7 11 22 35 39 36 46 62 72 62
100 100 10 8 8 7 7 7 6 6 6 6 6 10 82 83 99 100 100 100 100 70 69 85 100 99 88 82 100 100 100 94 40 14 7 7 6 6 6 6 6 6 6 6 6 11 15 30 46 53 60 70 82 81
100 100 36 14 7 6 6 6 6 6 6 8 48 88 99 100 100 100 88 77 97 100 87 98 99 92 100 100 100 98 95 51 10 7 7 6 7 6 6 7 7 6 5 5 5 14 16 24 47 55 64 69 87 91
100 100 100 75 73 69 53 48 41 61 85 89 89 100 100 100 100 78 78 99 100 100 100 100 100 100 100 100 98 53 20 9 8 8 8 8 8 8 9 10 9 8 7 6 5 7 13 24 39 52 58 68 65 80
100 100 100 100 100 100 100 100 100 100 100 100 100 100 100 80 64 94 98 97 100 100 100 100 100 100 100 84 29 12 10 9 9 9 9 10 11 12 14 14 14 13 11 8 7 6 11 22 27 40 44 43 63 59
100 100 100 100 100 99 90 90 90 99 100 100 98 99 100 100 100 100 100 100 100 100 100 99 100 94 72 21 13 11 10 10 10 11 12 14 17 18 18 20 21 19 16 10 8 8 16 23 24 24 28 34 44 57
100 95 100 100 86 81 100 100 100 100 100 100 100 100 100 100 100 100 100 97 100 100 97 99 99 43 37 18 12 10 11 11 13 15 17 20 22 23 23 24 26 24 17 11 9 14 18 28 26 36 51 57 68 75
100 100 60 100 100 100 100 100 99 97 100 100 100 100 98 100 100 100 100 100 100 99 93 71 26 21 18 15 13 12 12 16 20 21 22 26 27 28 28 29 31 25 15 10 14 33 33 34 72 100 100 100 97 89
100 100 100 100 100 100 100 98 97 100 100 100 100 100 100 100 100 100 100 99 99 100 78 28 18 17 16 13 12 15 22 27 30 28 32 33 33 33 33 34 33 22 12 13 33 70 90 100 99 100 100 100 100 92
100 99 98 99 100 100 100 100 100 100 100 100 100 100 100 100 100 100 94 97 88 32 23 18 16 15 17 16 23 35 40 41 42 42 41 41 39 38 38 37 30 15 11 20 36 57 100 100 100 100 100 100 99 87
100 100 100 100 100 100 100 100 100 100 100 99 100 100 100 97 95 98 90 68 39 33 17 13 19 27 33 49 61 52 57 56 54 56 52 46 44 41 41 37 18 12 17 34 54 56 89 99 97 100 100 94 86 84
100 100 100 100 100 100 100 97 94 96 95 99 97 95 97 86 77 78 82 70 36 20 16 14 18 30 60 75 78 75 70 70 66 61 55 50 46 46 41 24 12 21 35 46 56 58 64 71 72 71 70 71 72 69
100 100 100 100 100 100 100 100 98 98 99 96 100 99 83 78 90 88 52 26 22 16 15 17 29 53 64 75 80 82 80 76 70 64 58 52 51 48 36 15 18 30 41 53 64 70 74 74 71 68 64 60 56 54
99 100 100 100 100 100 100 100 100 100 100 98 92 86 91 97 92 62 37 27 29 34 31 27 32 41 53 62 63 69 72 70 68 64 59 54 53 44 23 12 22 34 39 47 58 68 70 72 73 71 68 66 68 70
100 100 96 100 100 100 100 100 100 100 98 97 98 100 100 100 89 75 59 36 32 37 38 35 37 46 55 59 59 65 68 66 67 63 57 56 50 36 14 15 28 34 44 63 73 75 77 76 76 80 86 86 68 31
100 100 100 100 100 100 100 100 100 100 100 100 100 100 100 100 99 96 90 60 44 36 30 30 41 52 60 61 66 72 70 69 69 62 57 54 44 21 14 21 32 47 62 69 74 79 85 88 85 60 24 19 18 18
96 100 100 100 99 99 98 98 100 100 100 100 99 100 100 100 97 99 100 100 97 69 59 73 82 89 88 78 80 77 71 69 69 61 58 50 34 13 16 27 40 58 67 72 78 83 74 32 20 19 19 18 20 20
63 83 97 97 95 97 98 99 100 99 96 96 96 98 98 98 93 90 91 96 97 96 93 91 91 94 96 95 84 78 74 73 68 62 54 43 18 14 21 33 52 65 71 79 80 52 22 20 20 19 22 28 29 28
54 59 71 80 92 100 98 97 96 95 98 92 94 98 98 94 93 95 94 94 95 96 97 98 100 99 92 84 81 79 78 72 68 58 46 25 14 17 29 46 60 69 77 81 48 22 22 20 22 29 35 36 35 35
69 75 76 73 72 77 84 87 87 86 84 88 88 89 89 91 92 92 94 94 94 94 94 98 98 92 87 86 86 83 76 72 60 48 29 12 14 27 42 58 66 73 79 54 24 23 22 25 33 37 35 34 34 37
67 81 88 82 82 78 81 75 83 85 79 82 91 96 99 99 96 95 89 90 95 93 94 97 96 93 91 88 84 79 70 55 42 28 13 14 27 42 58 69 74 80 57 27 25 24 28 41 42 37 34 32 34 39
60 65 88 92 86 82 79 84 91 93 96 98 100 100 100 100 100 100 96 94 88 90 90 89 86 86 86 82 74 61 45 38 26 14 15 29 39 57 69 77 85 64 30 26 27 31 43 46 40 38 35 36 35 38
76 72 76 82 83 85 81 84 85 86 88 90 91 92 91 90 88 87 85 80 80 80 78 77 76 72 68 59 49 44 38 24 16 20 34 42 49 69 79 89 79 35 28 30 31 37 52 45 42 41 41 39 38 39
74 73 58 64 66 60 62 61 70 77 78 82 83 82 79 73 68 63 62 60 56 52 50 49 46 44 42 40 39 36 26 17 22 39 45 48 58 73 93 93 52 31 33 36 37 56 57 49 48 48 48 47 46 45
49 46 46 57 61 60 59 59 58 59 64 66 64 57 51 44 36 34 33 33 33 32 31 30 28 26 25 23 19 17 16 19 41 52 50 53 62 76 98 86 35 35 42 46 52 69 63 58 58 59 58 55 54 52
42 27 39 63 74 80 83 85 76 63 52 49 47 39 35 32 33 32 30 27 24 21 20 19 18 17 17 17 18 21 30 49 57 56 56 60 67 97 100 60 38 47 55 59 72 80 71 69 70 69 66 64 62 60
64 66 71 80 81 83 77 78 73 62 58 55 47 43 37 38 40 39 36 34 27 23 20 20 21 22 29 40 56 69 81 78 70 66 67 75 98 100 93 51 44 51 62 71 90 91 82 80 80 79 76 74 71 70
68 64 65 75 98 89 77 77 72 70 64 59 54 47 41 42 56 48 43 37 32 28 28 34 49 68 90 100 100 100 99 88 80 81 88 98 100 100 97 64 53 57 69 91 100 99 97 95 95 91 86 84 78 76
61 58 54 55 76 98 97 90 82 79 72 65 53 45 45 60 58 45 41 40 35 36 53 95 100 100 100 100 100 100 100 99 98 99 100 100 100 100 100 88 73 75 87 98 100 100 100 100 100 98 93 88 84 80
92 86 68 54 55 56 53 52 51 51 53 59 66 68 70 61 42 40 42 39 48 84 100 100 100 100 100 100 100 100 100 100 100 100 100 100 100 100 100 100 94 94 98 100 100 100 100 100 100 100 97 92 86 83
71 93 99 99 97 97 98 97 96 96 92 84 74 62 51 49 42 40 49 67 96 100 100 100 100 100 100 100 100 100 100 100 100 100 99 100 100 100 100 100 100 100 100 100 100 100 100 100 100 100 99 94 87 85

GFSWCAN_500_rhum_150.txt.gz
RH
100 100 60 9 12 15 21 15 14 16 21 25 21 17 14 14 13 14 24 77 100 100 100 100 100 100 100 86 68 82 100 85 91 78 67 67 69 90 98 98 98 80 26 6 5 5 8 17 32 19 18 26 30 34
100 100 99 13 15 30 36 16 15 15 21 22 16 14 12 11 11 12 18 44 85 100 100 100 86 82 95 100 95 81 60 56 95 99 100 99 99 100 100 94 16 6 6 6 7 8 21 25 14 26 37 34 35 28
100 100 52 12 26 36 33 12 12 17 22 18 14 12 10 10 10 10 13 25 99 100 100 100 100 100 100 98 64 53 98 88 100 94 90 95 100 93 42 34 7 5 5 5 6 9 7 8 11 17 28 42 42 33
97 72 11 9 28 30 14 10 12 18 17 15 13 9 9 9 9 9 23 100 100 100 100 98 100 100 94 57 52 54 88 96 95 97 100 99 77 30 9 7 5 5 6 6 6 6 6 8 10 13 20 49 54 57
61 58 9 10 20 18 13 16 17 15 15 13 10 9 8 8 8 19 99 100 100 100 100 100 100 100 75 83 99 100 100 97 86 98 100 62 27 9 6 6 6 6 7 8 8 6 6 6 8 16 22 35 55 62
52 20 8 9 12 12 13 13 12 12 12 11 10 9 8 8 19 100 100 100 100 100 100 100 94 70 75 100 100 100 100 100 100 97 57 10 7 7 7 7 8 9 10 12 12 8 8 6 6 10 20 26 43 51
100 26 9 9 14 9 8 8 9 9 9 9 10 8 8 52 100 100 91 90 97 96 89 91 97 92 100 100 100 100 98 99 55 10 7 7 8 8 9 10 12 14 16 16 16 16 10 8 8 9 16 24 28 31
100 79 11 8 7 7 7 7 8 8 9 8 8 50 98 100 100 100 100 100 76 98 100 100 100 100 100 99 100 100 94 55 14 9 9 9 10 11 15 17 18 20 22 22 21 17 14 10 9 15 26 26 28 44
100 100 100 97 58 13 7 6 7 7 7 39 96 100 100 100 100 98 80 100 100 100 98 93 98 95 100 100 95 57 12 10 10 10 10 13 15 19 22 22 24 25 26 25 23 19 12 10 20 21 32 83 99 100
100 100 99 100 100 100 100 100 93 97 99 100 100 94 100 100 99 100 100 100 100 100 100 100 99 100 100 58 17 14 11 11 12 12 15 18 22 25 27 28 29 28 28 27 21 11 11 30 73 72 71 78 84 94
100 100 100 100 100 100 100 100 100 100 100 100 100 100 100 100 100 100 98 100 98 98 99 99 97 39 46 24 14 16 26 15 15 19 24 25 30 32 33 33 32 33 31 21 10 10 19 41 61 81 91 94 100 100
100 100 100 100 100 100 100 98 98 99 99 100 91 100 99 100 98 97 95 99 98 100 100 91 40 64 32 28 32 19 15 20 28 30 33 38 39 40 38 36 36 34 24 11 9 16 26 37 72 100 100 100 100 92
100 100 100 100 100 100 100 100 100 100 100 100 100 100 100 96 92 99 94 96 97 92 90 68 40 29 26 16 14 18 32 38 41 47 48 51 48 44 40 40 37 29 12 9 18 30 38 50 54 51 50 51 54 53
100 100 100 100 100 100 100 100 100 100 100 100 100 99 100 97 93 86 98 100 100 94 83 60 28 23 20 17 34 56 56 57 58 59 58 54 50 47 43 40 37 17 10 16 26 36 46 52 58 60 60 60 60 59
100 100 100 100 100 100 100 100 100 100 100 100 100 100 100 99 100 100 100 100 75 24 20 15 17 20 34 61 71 72 71 71 70 65 61 57 53 49 44 42 28 10 12 22 29 40 52 59 60 59 60 60 58 61
96 99 100 100 100 100 100 100 100 100 100 100 99 98 100 100 100 98 97 65 28 17 15 16 21 30 54 64 73 74 71 68 66 62 57 54 51 46 44 38 16 10 18 28 42 58 64 66 66 64 65 71 67 37
100 100 100 100 100 100 100 100 100 100 100 100 100 100 100 100 100 96 78 44 30 18 16 17 18 30 43 51 57 60 59 63 64 61 57 54 49 48 45 29 11 14 25 42 55 62 67 71 73 70 40 19 18 17
100 100 100 100 99 97 100 100 100 100 100 100 100 100 100 100 98 75 44 26 23 22 25 28 34 40 45 48 54 60 61 65 68 65 62 57 52 52 43 23 11 17 34 51 60 66 68 68 43 20 19 17 19 26
100 100 100 100 100 100 100 100 100 100 99 100 100 100 99 99 96 67 41 32 30 32 35 37 38 39 42 45 59 74 74 73 72 68 66 62 57 53 38 16 12 22 41 56 62 68 67 39 20 20 18 24 32 29
100 100 100 100 100 100 100 100 100 100 100 99 100 100 100 100 99 83 66 60 60 54 53 46 46 49 56 69 87 87 81 79 76 74 71 64 60 49 32 13 13 28 45 59 63 72 58 23 21 20 26 32 29 27
97 100 100 100 100 100 100 100 100 100 100 100 100 100 100 100 100 99 98 97 96 95 91 84 74 73 87 95 91 85 82 77 76 76 70 64 57 43 23 12 16 34 50 61 68 71 37 23 22 26 37 34 30 32
92 97 97 100 100 100 100 99 100 100 100 100 100 100 100 98 95 93 90 88 86 89 92 94 97 98 95 88 88 82 76 73 75 76 71 63 48 32 14 14 24 44 62 67 78 58 27 24 26 42 39 34 36 40
48 58 70 84 92 91 98 97 99 98 96 97 98 97 92 89 89 90 84 84 85 87 88 89 92 92 89 86 88 85 81 78 77 75 68 50 33 15 13 19 38 59 69 83 73 35 26 26 37 47 42 39 43 46
52 55 58 58 66 72 78 78 79 76 69 71 76 80 87 91 91 91 88 85 86 88 91 91 92 88 87 86 88 83 80 78 76 63 44 34 19 14 17 29 51 69 79 88 55 29 28 30 39 52 48 46 51 55
45 61 59 64 59 63 65 69 74 81 90 92 95 94 94 92 92 88 84 87 88 87 86 84 83 79 78 80 83 80 77 70 55 43 36 24 16 16 27 41 58 71 93 93 42 30 33 34 48 62 56 56 62 63
44 43 49 68 77 73 76 83 88 92 98 99 99 98 98 96 92 88 84 81 79 76 74 72 71 71 71 70 67 62 56 48 40 35 29 20 17 22 38 48 62 71 100 92 37 35 43 44 59 72 68 68 74 75
44 40 44 52 69 76 79 81 85 86 88 89 87 83 85 84 82 76 71 67 63 59 56 52 48 45 44 41 39 37 34 31 27 21 18 16 21 41 49 55 61 77 100 87 38 42 56 61 72 86 84 80 86 87
41 55 57 67 75 72 70 66 62 61 56 57 53 48 48 46 42 37 33 30 29 28 28 26 25 24 24 24 23 22 20 17 15 15 16 20 40 53 56 62 67 100 100 74 45 51 65 75 93 99 98 96 95 93
41 41 44 56 69 70 67 66 65 60 64 66 58 50 40 40 37 36 33 33 33 29 25 23 23 21 19 18 17 17 17 19 20 29 40 55 61 66 68 73 99 100 100 76 57 61 73 92 100 100 99 94 92 91
59 46 43 42 55 66 68 75 73 77 78 79 72 63 54 50 48 46 41 38 38 42 39 34 31 26 23 22 25 35 49 62 80 87 87 90 86 79 82 94 100 100 100 95 80 81 93 100 100 100 100 97 95 92
81 74 72 69 62 67 74 84 96 96 95 88 80 72 65 62 54 46 42 41 50 49 38 34 33 30 29 37 78 94 100 100 99 98 99 98 92 95 100 100 100 100 100 100 100 99 100 100 100 100 100 100 100 96
72 70 66 67 67 69 59 51 54 76 98 97 87 80 62 47 44 48 55 66 64 50 40 36 33 34 62 99 100 100 100 100 100 98 100 98 96 98 100 100 100 100 100 100 100 100 100 100 100 100 100 100 100 98
75 88 90 88 80 67 61 58 53 48 50 50 47 47 48 54 62 70 82 70 52 42 38 38 40 76 100 100 100 100 100 100 100 100 100 100 100 100 100 100 100 100 100 100 100 100 100 100 100 100 100 100 100 100